Regional Weather Roundup
Issued by NWS Albany, NY

Home | Current Version | Previous Version | Graphics & Text | Print | Product List | Glossary On
Versions: 1 2 3 4 5 6 7 8 9 10 11 12 13 14 15 16 17 18 19 20 21 22 23 24 25 26 27 28 29 30 31 32 33 34 35 36 37 38 39 40 41 42 43 44 45 46 47 48 49 50
000
ASUS41 KALY 062110
RWRALY

NEW YORK STATE HOURLY WEATHER ROUNDUP
NATIONAL WEATHER SERVICE ALBANY NY
500 PM EDT MON JUL 06 2015

NOTE: "FAIR" INDICATES FEW OR NO CLOUDS BELOW 12,000 FEET WITH NO
SIGNIFICANT WEATHER AND/OR NO OBSTRUCTIONS TO VISIBILITY.

NYZ032-033-038>043-046>054-057>066-NYZ062>081-062200-
EAST


CITY           SKY/WX    TMP DP  RH WIND       PRES   REMARKS
ALBANY         MOSUNNY   84  61  45 S7        30.08F
GLENS FALLS    SUNNY     82  61  48 SE10      30.08F
POUGHKEEPSIE   PTSUNNY   82  68  62 S6        30.10F
MONTGOMERY     CLOUDY    80  69  69 SE8       30.11F
WHITE PLAINS   PTSUNNY   79  65  62 SE8       30.13F
ISLIP          CLOUDY    77  63  61 S8        30.13F
NEW YORK CITY  PTSUNNY   81  65  58 SE12      30.11F
CENTRAL PARK   CLOUDY    79  66  64 VRB6      30.15F
$$

NYZ005>009-017-018-044>046-055-056-062200-
CENTRAL


CITY           SKY/WX    TMP DP  RH WIND       PRES   REMARKS
FULTON         MOSUNNY   82  65  56 SE6       30.04F
SYRACUSE       CLOUDY    82  66  58 S12       30.04F
ROME           SUNNY     84  61  45 S12       30.07F
ELMIRA         PTSUNNY   81  71  71 S12       30.06F
BINGHAMTON     PTSUNNY   74  69  85 SE7       30.12F
MONTICELLO     PTSUNNY   79  66  65 S6        30.17S
$$

NYZ026>034-041>043-062200-
NORTH


CITY           SKY/WX    TMP DP  RH WIND       PRES   REMARKS
WATERTOWN      SUNNY     85  58  39 VRB5      30.02F
FORT DRUM      NOT AVBL
MASSENA        MOSUNNY   83  60  45 SW6       30.04F
SARANAC LAKE   SUNNY     79  51  37 SW6       30.10F
PLATTSBURGH    SUNNY     80  63  55 SE12      30.05F
$$

NYZ001>004-010>016-019>021-062200-
WEST


CITY           SKY/WX    TMP DP  RH WIND       PRES   REMARKS
NIAGARA FALLS  PTSUNNY   84  66  54 CALM      29.99S
BUFFALO        PTSUNNY   85  66  53 S9        29.99F
DUNKIRK        MOSUNNY   80  69  69 N10       30.02R
JAMESTOWN      PTSUNNY   73  64  73 SE9       30.08F
WELLSVILLE     MOSUNNY   74  66  76 SE10      30.13S
ROCHESTER      PTSUNNY   85  68  56 S13G18    30.01F
PENN YAN       PTSUNNY   82  68  62 S15       30.06F
$$

             KEY
       WCI = WIND CHILL INDEX
       VSB = VISIBILITY
       HX  = HEAT INDEX
$$



USA.gov is the U.S. government's official web portal to all federal, state and local government web resources and services.